Location: Trout Lake
(45.9980°N, 121.5270°W)
Time: 18:45:35
(UTC-08:00)

Cosmos 1241 Rocket - Pass Details

Date: 06 December 2023
Orbit: 942 x 1004 km, 65.8° (Epoch: 22 February)

Event Time Altitude Azimuth Distance (km) Brightness Sun altitude
Rises 18:12:09 0° 202° (SSW) 3,669 8.0 -18.5°
Reaches altitude 10° 18:14:45 10° 199° (SSW) 2,716 7.2 -19.0°
Maximum altitude 18:21:00 64° 119° (ESE) 1,060 4.4 -20.0°
Enters shadow 18:23:56 32° 49° (NE) 1,579 5.1 -20.5°
